| time (UTC) | temp F | wind direction | speed MPH | gust MPH | rain 1hr in | rain 24hr in | rain mn in | humidity % | barometer mb |
| 20260506090416 | 61 | 315 | 3.0 | 5.0 | 0.00 | 0.00 | 0.00 | 38 | 1014.0 |
| 20260506085416 | 61 | 293 | 5.0 | 9.0 | 0.00 | 0.00 | 0.00 | 37 | 1014.2 |
| 20260506084416 | 61 | 315 | 6.0 | 12.0 | 0.00 | 0.00 | 0.00 | 36 | 1013.9 |
| 20260506083436 | 62 | 293 | 4.0 | 5.0 | 0.00 | 0.00 | 0.00 | 35 | 1013.9 |
| 20260506082436 | 62 | 293 | 4.0 | 7.0 | 0.00 | 0.00 | 0.00 | 33 | 1014.2 |
| 20260506081416 | 62 | 315 | 6.0 | 10.0 | 0.00 | 0.00 | 0.00 | 31 | 1014.2 |
| 20260506080416 | 63 | 315 | 2.0 | 5.0 | 0.00 | 0.00 | 0.00 | 30 | 1014.3 |
| 20260506073416 | 62 | 0.0 | 0.0 | 0.00 | 0.00 | 0.00 | 30 | 1014.3 | |
| 20260506072416 | 61 | 0.0 | 0.0 | 0.00 | 0.00 | 0.00 | 30 | 1013.8 | |
| 20260506071416 | 62 | 0.0 | 0.0 | 0.00 | 0.00 | 0.00 | 29 | 1013.7 | |
| 20260506070456 | 63 | 0.0 | 0.0 | 0.00 | 0.00 | 0.00 | 29 | 1014.1 | |
| 20260506062416 | 65 | 225 | 3.0 | 5.0 | 0.00 | 0.00 | 0.00 | 26 | 1014.1 |
| 20260506061416 | 65 | 203 | 4.0 | 7.0 | 0.00 | 0.00 | 0.00 | 26 | 1014.3 |
| 20260506060416 | 65 | 225 | 4.0 | 7.0 | 0.00 | 0.00 | 0.00 | 25 | 1014.3 |
| 20260506051416 | 67 | 225 | 2.0 | 4.0 | 0.00 | 0.00 | 0.00 | 24 | 1013.3 |
| 20260506050416 | 68 | 225 | 3.0 | 9.0 | 0.00 | 0.00 | 0.00 | 24 | 1013.3 |
| 20260506044416 | 68 | 225 | 4.0 | 10.0 | 0.00 | 0.00 | 0.00 | 22 | 1013.5 |
| 20260506043416 | 68 | 225 | 5.0 | 10.0 | 0.00 | 0.00 | 0.00 | 22 | 1013.3 |
| 20260506042436 | 68 | 248 | 5.0 | 11.0 | 0.00 | 0.00 | 0.00 | 21 | 1013.3 |
| 20260506041416 | 68 | 225 | 4.0 | 9.0 | 0.00 | 0.00 | 0.00 | 21 | 1012.4 |
| 20260506040416 | 69 | 203 | 2.0 | 6.0 | 0.00 | 0.00 | 0.00 | 20 | 1012.6 |
| 20260506035417 | 69 | 0.0 | 0.0 | 0.00 | 0.00 | 0.00 | 19 | 1012.3 | |
| 20260506034416 | 69 | 293 | 3.0 | 6.0 | 0.00 | 0.00 | 0.00 | 19 | 1011.9 |
| 20260506033416 | 70 | 293 | 4.0 | 10.0 | 0.00 | 0.00 | 0.00 | 19 | 1012.0 |
| 20260506032416 | 70 | 248 | 4.0 | 9.0 | 0.00 | 0.00 | 0.00 | 20 | 1011.7 |
| 20260506031416 | 71 | 225 | 5.0 | 9.0 | 0.00 | 0.00 | 0.00 | 20 | 1011.4 |
| 20260506030436 | 71 | 293 | 5.0 | 12.0 | 0.00 | 0.00 | 0.00 | 20 | 1011.2 |
| 20260506025416 | 71 | 225 | 6.0 | 12.0 | 0.00 | 0.00 | 0.00 | 20 | 1011.1 |
| 20260506024416 | 71 | 248 | 1.0 | 3.0 | 0.00 | 0.00 | 0.00 | 20 | 1011.0 |
| 20260506023436 | 72 | 225 | 3.0 | 19.0 | 0.00 | 0.00 | 0.00 | 21 | 1010.8 |
| 20260506022416 | 72 | 225 | 4.0 | 8.0 | 0.00 | 0.00 | 0.00 | 22 | 1010.7 |
| 20260506021416 | 72 | 225 | 5.0 | 11.0 | 0.00 | 0.00 | 0.00 | 23 | 1010.5 |
| 20260506020436 | 72 | 248 | 4.0 | 10.0 | 0.00 | 0.00 | 0.00 | 22 | 1010.4 |
| 20260506015416 | 73 | 248 | 5.0 | 12.0 | 0.00 | 0.00 | 0.00 | 22 | 1010.3 |
| 20260506014416 | 73 | 248 | 6.0 | 13.0 | 0.00 | 0.00 | 0.00 | 21 | 1010.1 |
| 20260506013416 | 73 | 225 | 6.0 | 11.0 | 0.00 | 0.00 | 0.00 | 21 | 1010.0 |
| 20260506012416 | 74 | 248 | 1.0 | 5.0 | 0.00 | 0.00 | 0.00 | 21 | 1010.1 |
| 20260506011416 | 74 | 225 | 3.0 | 6.0 | 0.00 | 0.00 | 0.00 | 21 | 1010.2 |
| 20260506010416 | 74 | 248 | 4.0 | 7.0 | 0.00 | 0.00 | 0.00 | 22 | 1010.0 |
| 20260506005416 | 74 | 293 | 4.0 | 6.0 | 0.00 | 0.00 | 0.00 | 23 | 1010.1 |
| 20260506004416 | 75 | 225 | 6.0 | 15.0 | 0.00 | 0.00 | 0.00 | 23 | 1010.0 |
| 20260506003436 | 75 | 270 | 5.0 | 9.0 | 0.00 | 0.00 | 0.00 | 24 | 1010.0 |
| 20260506002436 | 75 | 293 | 6.0 | 16.0 | 0.00 | 0.00 | 0.00 | 24 | 1010.0 |
| 20260506001416 | 75 | 248 | 5.0 | 10.0 | 0.00 | 0.00 | 0.00 | 24 | 1010.4 |
| 20260506000416 | 75 | 293 | 5.0 | 10.0 | 0.00 | 0.00 | 0.00 | 26 | 1010.2 |
| 20260505235416 | 75 | 270 | 5.0 | 10.0 | 0.00 | 0.00 | 0.00 | 27 | 1010.3 |
| 20260505234416 | 75 | 270 | 2.0 | 5.0 | 0.00 | 0.00 | 0.00 | 28 | 1010.2 |
| 20260505233416 | 75 | 225 | 2.0 | 7.0 | 0.00 | 0.00 | 0.00 | 28 | 1010.3 |
| 20260505232416 | 75 | 293 | 5.0 | 12.0 | 0.00 | 0.00 | 0.00 | 28 | 1010.2 |
| 20260505231416 | 75 | 315 | 4.0 | 7.0 | 0.00 | 0.00 | 0.00 | 28 | 1010.2 |
| 20260505230416 | 75 | 248 | 3.0 | 7.0 | 0.00 | 0.00 | 0.00 | 30 | 1010.2 |
| 20260505225416 | 74 | 293 | 2.0 | 4.0 | 0.00 | 0.00 | 0.00 | 31 | 1010.5 |
| 20260505224416 | 75 | 225 | 4.0 | 10.0 | 0.00 | 0.00 | 0.00 | 31 | 1010.9 |
| 20260505223416 | 74 | 225 | 3.0 | 7.0 | 0.00 | 0.00 | 0.00 | 33 | 1011.0 |
| 20260505222416 | 74 | 293 | 5.0 | 8.0 | 0.00 | 0.00 | 0.00 | 33 | 1010.9 |
| 20260505221416 | 74 | 293 | 4.0 | 10.0 | 0.00 | 0.00 | 0.00 | 33 | 1011.3 |
| 20260505220416 | 74 | 315 | 7.0 | 12.0 | 0.00 | 0.00 | 0.00 | 33 | 1011.4 |
| 20260505215416 | 75 | 293 | 11.0 | 16.0 | 0.00 | 0.00 | 0.00 | 32 | 1011.2 |
| 20260505214416 | 76 | 293 | 3.0 | 5.0 | 0.00 | 0.00 | 0.00 | 32 | 1011.8 |
| 20260505213416 | 75 | 293 | 10.0 | 19.0 | 0.00 | 0.00 | 0.00 | 32 | 1012.1 |
| 20260505212416 | 74 | 293 | 7.0 | 18.0 | 0.00 | 0.00 | 0.00 | 33 | 1012.1 |
| 20260505211436 | 75 | 315 | 11.0 | 18.0 | 0.00 | 0.00 | 0.00 | 32 | 1012.3 |
| 20260505210416 | 73 | 315 | 8.0 | 15.0 | 0.00 | 0.00 | 0.00 | 36 | 1012.3 |
| 20260505205416 | 72 | 338 | 6.0 | 8.0 | 0.00 | 0.00 | 0.00 | 37 | 1012.4 |
| 20260505204416 | 72 | 293 | 6.0 | 11.0 | 0.00 | 0.00 | 0.00 | 36 | 1012.3 |
| 20260505203416 | 73 | 225 | 4.0 | 7.0 | 0.00 | 0.00 | 0.00 | 36 | 1012.5 |
| 20260505202416 | 73 | 293 | 4.0 | 6.0 | 0.00 | 0.00 | 0.00 | 36 | 1012.7 |
| 20260505201416 | 73 | 293 | 5.0 | 7.0 | 0.00 | 0.00 | 0.00 | 36 | 1013.0 |
| 20260505200416 | 71 | 315 | 4.0 | 7.0 | 0.00 | 0.00 | 0.00 | 38 | 1012.7 |
| 20260505195416 | 72 | 293 | 6.0 | 11.0 | 0.00 | 0.00 | 0.00 | 37 | 1013.3 |
| 20260505194416 | 71 | 293 | 4.0 | 9.0 | 0.00 | 0.00 | 0.00 | 39 | 1013.6 |
| 20260505193416 | 70 | 293 | 6.0 | 10.0 | 0.00 | 0.00 | 0.00 | 38 | 1013.4 |
| 20260505192416 | 72 | 315 | 7.0 | 12.0 | 0.00 | 0.00 | 0.00 | 36 | 1013.7 |
| 20260505191416 | 71 | 225 | 6.0 | 14.0 | 0.00 | 0.00 | 0.00 | 37 | 1013.8 |
| 20260505190456 | 70 | 293 | 8.0 | 16.0 | 0.00 | 0.00 | 0.00 | 36 | 1013.9 |
| 20260505185436 | 71 | 293 | 10.0 | 18.0 | 0.00 | 0.00 | 0.00 | 34 | 1013.8 |
| 20260505184416 | 71 | 293 | 7.0 | 13.0 | 0.00 | 0.00 | 0.00 | 34 | 1014.1 |
| 20260505183436 | 72 | 248 | 3.0 | 7.0 | 0.00 | 0.00 | 0.00 | 33 | 1013.9 |
| 20260505182416 | 71 | 293 | 6.0 | 9.0 | 0.00 | 0.00 | 0.00 | 32 | 1013.9 |
| 20260505181416 | 72 | 248 | 4.0 | 9.0 | 0.00 | 0.00 | 0.00 | 32 | 1014.3 |
| 20260505180416 | 73 | 225 | 4.0 | 8.0 | 0.00 | 0.00 | 0.00 | 31 | 1014.0 |
| 20260505175416 | 73 | 293 | 5.0 | 9.0 | 0.00 | 0.00 | 0.00 | 31 | 1013.9 |
| 20260505174416 | 73 | 270 | 4.0 | 6.0 | 0.00 | 0.00 | 0.00 | 34 | 1014.4 |
| 20260505173416 | 72 | 293 | 6.0 | 9.0 | 0.00 | 0.00 | 0.00 | 35 | 1014.4 |
| 20260505172416 | 70 | 248 | 5.0 | 8.0 | 0.00 | 0.00 | 0.00 | 37 | 1014.1 |
| 20260505171416 | 70 | 225 | 7.0 | 13.0 | 0.00 | 0.00 | 0.00 | 37 | 1014.2 |
| 20260505170416 | 70 | 315 | 6.0 | 9.0 | 0.00 | 0.00 | 0.00 | 37 | 1014.2 |
| 20260505165416 | 68 | 293 | 4.0 | 7.0 | 0.00 | 0.00 | 0.00 | 40 | 1013.9 |
| 20260505164416 | 66 | 315 | 2.0 | 3.0 | 0.00 | 0.00 | 0.00 | 43 | 1013.9 |
| 20260505163416 | 66 | 338 | 2.0 | 4.0 | 0.00 | 0.00 | 0.00 | 42 | 1014.1 |
| 20260505162416 | 67 | 315 | 5.0 | 8.0 | 0.00 | 0.00 | 0.00 | 41 | 1014.0 |
| 20260505161416 | 68 | 0.0 | 1.0 | 0.00 | 0.00 | 0.00 | 42 | 1014.0 | |
| 20260505160416 | 66 | 0.0 | 0.0 | 0.00 | 0.00 | 0.00 | 43 | 1014.1 | |
| 20260505152436 | 64 | 338 | 2.0 | 4.0 | 0.00 | 0.00 | 0.00 | 46 | 1013.6 |
| 20260505151416 | 64 | 45 | 3.0 | 4.0 | 0.00 | 0.00 | 0.00 | 48 | 1013.6 |
| 20260505150416 | 62 | 270 | 1.0 | 3.0 | 0.00 | 0.00 | 0.00 | 49 | 1013.2 |
| 20260505140436 | 60 | 338 | 2.0 | 5.0 | 0.00 | 0.00 | 0.00 | 54 | 1013.6 |
| 20260505124416 | 60 | 338 | 4.0 | 6.0 | 0.00 | 0.00 | 0.00 | 51 | 1013.3 |
| 20260505123416 | 60 | 338 | 4.0 | 9.0 | 0.00 | 0.00 | 0.00 | 51 | 1013.0 |
| 20260505122416 | 60 | 338 | 4.0 | 7.0 | 0.00 | 0.00 | 0.00 | 50 | 1013.2 |
| 20260505121416 | 61 | 315 | 3.0 | 5.0 | 0.00 | 0.00 | 0.00 | 50 | 1013.0 |
| 20260505120416 | 61 | 293 | 2.0 | 5.0 | 0.00 | 0.00 | 0.00 | 49 | 1013.2 |
| 20260505115416 | 61 | 315 | 4.0 | 6.0 | 0.00 | 0.00 | 0.00 | 49 | 1013.2 |
| 20260505114416 | 61 | 315 | 3.0 | 5.0 | 0.00 | 0.00 | 0.00 | 48 | 1013.2 |
| 20260505113416 | 61 | 315 | 3.0 | 5.0 | 0.00 | 0.00 | 0.00 | 48 | 1013.2 |
| 20260505112416 | 61 | 338 | 7.0 | 15.0 | 0.00 | 0.00 | 0.00 | 48 | 1013.2 |
| 20260505111416 | 62 | 315 | 6.0 | 11.0 | 0.00 | 0.00 | 0.00 | 47 | 1013.4 |
| 20260505110416 | 62 | 315 | 5.0 | 8.0 | 0.00 | 0.00 | 0.00 | 47 | 1013.3 |
| 20260505101416 | 63 | 293 | 6.0 | 9.0 | 0.00 | 0.00 | 0.00 | 45 | 1013.3 |
| 20260505100416 | 63 | 315 | 4.0 | 7.0 | 0.00 | 0.00 | 0.00 | 45 | 1013.4 |
| 20260505095416 | 63 | 315 | 2.0 | 3.0 | 0.00 | 0.00 | 0.00 | 44 | 1013.5 |
| 20260505094436 | 63 | 315 | 2.0 | 4.0 | 0.00 | 0.00 | 0.00 | 44 | 1013.2 |
| 20260505093416 | 63 | 315 | 6.0 | 8.0 | 0.00 | 0.00 | 0.00 | 43 | 1013.1 |
| 20260505092416 | 64 | 315 | 5.0 | 9.0 | 0.00 | 0.00 | 0.00 | 43 | 1013.3 |
| 20260505091436 | 64 | 315 | 4.0 | 8.0 | 0.00 | 0.00 | 0.00 | 42 | 1013.4 |